Вернуться в каталог

STARLINK-36653

АктивенСвязьVLEO
NORAD 67842·PAYLOAD·🇺🇸 United States

Запущен Feb 16, 2026 с Vandenberg Space Force Base

Loading…

Ближайшие Пролёты (ближайшие 24 часа)

TLE

СвежийSource: CelesTrak SupGP

Эпоха: Sep 14, 2026, 23:17 UTC

1 67842C 26033X   26257.97062500  .00039336  00000+0  14249-2 0  2574
2 67842  43.0019 277.9827 0001400 262.0285  87.2298 15.27555466    11

Отслеживайте STARLINK-36653 в реальном времени с AllMySat

Download on the App Store